Miscellaneous Local Product
Issued by NWS Hastings, NE

Home | Current Version | Previous Version | Graphics & Text | Print | Product List | Glossary On
Versions: 1 2 3 4 5 6 7 8 9 10 11 12 13 14 15 16 17 18 19 20 21 22 23 24 25 26 27 28 29 30 31 32 33 34 35 36 37 38 39 40 41 42 43 44 45 46 47 48 49 50
000
AXUS43 KGID 222302
MISGRI

GID CWA HOURLY WEATHER ROUNDUP
NATIONAL WEATHER SERVICE HASTINGS NE
600 PM CDT WED OCT 22 2014

NOTE: "FAIR" INDICATES FEW OR NO CLOUDS BELOW 12,000 FEET WITH NO
SIGNIFICANT WEATHER AND/OR OBSTRUCTIONS TO VISIBILITY.

...SOUTH CENTRAL NEBRASKA...

CITY           SKY/WX    TMP DP  RH WIND       PRES   REMARKS
GRAND ISLAND   CLOUDY    62  59  90 S3        30.01R
HASTINGS       CLOUDY    62  57  83 S5        30.00R
KEARNEY        MOCLDY    64  57  77 SW3       30.01R
ORD            CLOUDY    62  57  83 NW5       30.00S
YORK           HVY RAIN  61  59  94 NW8       30.02S
AURORA         HVY RAIN  62  61  97 S13       30.00F
LEXINGTON      CLEAR     67  55  65 CALM      30.00S
HOLDREGE       MOCLDY    65  57  76 CALM      30.00R
HEBRON         LGT RAIN  63  60  90 CALM      30.00F

...NEBRASKA PANHANDLE...

CITY           SKY/WX    TMP DP  RH WIND       PRES   REMARKS
CHADRON        CLEAR     63  29  27 NW9       30.01F
ALLIANCE       PTCLDY    63  33  32 N7        30.02F
SCOTTSBLUFF    SUNNY     66  22  18 NW14G23   30.02S
SIDNEY         PTCLDY    62  34  35 N7        30.07R

...WESTERN AND NORTH CENTRAL NEBRASKA...

CITY           SKY/WX    TMP DP  RH WIND       PRES   REMARKS
VALENTINE      CLEAR     64  40  41 NW5       30.00S
AINSWORTH      CLEAR     62  43  50 NW5       30.01S
ONEILL         CLOUDY    58  55  88 CALM      30.01S
BROKEN BOW     PTCLDY    64  55  72 N6        30.01S
IMPERIAL       CLEAR     70  40  33 N9        30.02S
NORTH PLATTE   CLEAR     68  51  54 SE5       30.00R
MCCOOK         CLEAR     69  51  52 NE7       30.00S

...EASTERN NEBRASKA...

CITY           SKY/WX    TMP DP  RH WIND       PRES   REMARKS
NORFOLK        RAIN      59  57  93 SW6       30.00R
SO SIOUX CITY  HVY RAIN  63  60  90 NW10      30.01R FOG
TEKAMAH        MOCLDY    71  56  58 W17G23    29.99R
COLUMBUS       CLOUDY    63  57  82 SW12      30.02F
ALBION         CLOUDY    59  57  94 CALM      30.01R FOG
OMAHA EPPLEY   MOCLDY    72  54  53 SE17      29.99S
OFFUTT AFB     PTCLDY    72  57  59 SE12      29.99S
MILLARD        PTCLDY    73  57  58 SE8       29.98S
LINCOLN        HVY RAIN  65  61  87 W20G31    30.02R FOG
NEBRASKA CITY  PTCLDY    72  51  47 S13       30.01S
BEATRICE       MOCLDY    74  52  45 S15       29.99S
FALLS CITY     LGT RAIN  71  56  58 SE12      30.02S

...NORTHERN KANSAS...

CITY           SKY/WX    TMP DP  RH WIND       PRES   REMARKS
GOODLAND       CLEAR     71  45  39 NE7       30.03S
HILL CITY      CLOUDY    70  58  65 N12       29.98R
NORTON         PTCLDY    70  52  52 N3        29.98S
PHILLIPSBURG   LGT RAIN  68  64  88 CALM      29.98S
SMITH CENTER   MOCLDY    66  55  68 S17       29.99R
BELOIT         CLOUDY    66  57  72 S13       29.99R
HAYS           CLOUDY    66  55  68 S21G26    30.00R
RUSSELL        CLOUDY    66  56  70 S14       29.99S
CONCORDIA      LGT RAIN  66  57  72 S20G32    30.01R
SALINA         CLOUDY    71  54  54 S8        30.01S
TOPEKA         PTCLDY    74  60  61 SE10      30.05S



USA.gov is the U.S. government's official web portal to all federal, state and local government web resources and services.